Regional Weather Roundup
Issued by NWS Cleveland, OH

Home | Current Version | Previous Version | Graphics & Text | Print | Product List | Glossary On
Versions: 1 2 3 4 5 6 7 8 9 10 11 12 13 14 15 16 17 18 19 20 21 22 23 24 25 26 27 28 29 30 31 32 33 34 35 36 37 38 39 40 41 42 43 44 45 46 47 48 49 50
690
ASUS41 KCLE 221212
RWRCLE
OHIO REGIONAL WEATHER ROUNDUP
NATIONAL WEATHER SERVICE WILMINGTON, OH
800 AM EDT FRI SEP 22 2017

NOTE: "FAIR" INDICATES FEW OR NO CLOUDS BELOW 12,000 FEET WITH NO
SIGNIFICANT WEATHER AND/OR OBSTRUCTIONS TO VISIBILITY.

OHZ001>008-015>018-024>027-034-035-043-044-221300-
   NORTHWEST OHIO

CITY           SKY/WX    TMP DP  RH WIND       PRES   REMARKS
DEFIANCE       FAIR      68  65  90 CALM      30.11S FOG
FINDLAY        FAIR      69  65  86 E3        30.12R FOG
TOLEDO EXPRESS FAIR      68  68 100 CALM      30.11R FOG
TOLEDO EXEC    FAIR      69  67  93 E5        30.13R FOG
LIMA           FAIR      67  66  97 CALM      30.13R
$$

OHZ009>014-019>023-028>033-038-089-221300-
   NORTHEAST OHIO

CITY           SKY/WX    TMP DP  RH WIND       PRES   REMARKS
CLE-HOPKINS    FAIR      66  61  84 CALM      30.15R
CLE-LAKEFRONT  FAIR      68  60  75 CALM      30.12S
CUY CO. ARPT   PTCLDY    66  61  82 SE7       30.14S
LORAIN-ELYRIA  FAIR      60  56  86 CALM      30.14S FOG
ASHTABULA      FAIR      58  57  97 CALM      30.16S
AKRON-CANTON   FAIR      65  60  84 NE5       30.15R
WOOSTER        FAIR      57  56  96 CALM      30.15S
MANSFIELD      FAIR      66  64  93 CALM      30.15R
YOUNGSTOWN     MOCLDY    61  59  93 E3        30.15S
$$

OHZ042-051>053-060>062-070>072-077>081-221300-
  SOUTHWEST OHIO

CITY           SKY/WX    TMP DP  RH WIND       PRES   REMARKS
CINC-COVINGTON FAIR      67  67 100 CALM      30.12R
CINC-LUNKEN    FAIR      66  66 100 CALM      30.12S FOG
HAMILTON       MOCLDY    66  66 100 CALM      30.13R FOG
DAYTON         MOCLDY    70  66  87 CALM      30.14R
WRIGHT-PAT AFB FAIR      66  66 100 CALM      30.13R
DAYTON GENERAL FAIR      68  65  90 CALM      30.13R
WILMINGTON     FAIR      65  65 100 CALM      30.13R FOG
$$

OHZ036-037-039>041-045>050-054>059-063>069-073>076-082>088-221300-
  CENTRAL AND SOUTHEAST OHIO

CITY           SKY/WX    TMP DP  RH WIND       PRES   REMARKS
COLUMBUS       FAIR      68  66  93 CALM      30.13R
OSU AIRPORT    MOCLDY    67  67 100 CALM      30.13R FOG
BOLTON FIELD   CLOUDY    63  63 100 CALM      30.14R FOG
RICKENBACK AFB FAIR      64  64 100 CALM      30.13R
NEWARK         MOCLDY    62  61  96 CALM      30.14R FOG
MARION         FAIR      65  62  90 CALM      30.14R FOG
LANCASTER      FOG       60  60 100 CALM      30.14R VSB 3/4
ZANESVILLE     CLOUDY    61  60  97 CALM      30.14R
NEW PHILLY     FAIR      62  61  96 CALM      30.15R
$$




USA.gov is the U.S. government's official web portal to all federal, state and local government web resources and services.